Location: Bacharowice
(49.9333°N, 19.5833°E)
Time: 08:33:49
(UTC+00:00)

Cosmos 2344 - Pass Details

Date: 27 September 2021
Orbit: 1235 x 3007 km, 63.3° (Epoch: 19 October)

Event Time Altitude Azimuth Distance (km) Brightness Sun altitude
Rises 18:50:12 0° 295° (WNW) 4,216 7.8 -22.9°
Reaches altitude 10° 18:53:07 10° 305° (NW) 3,321 6.9 -23.4°
Maximum altitude 19:00:18 35° 11° (N) 2,216 4.9 -24.4°
Enters shadow 19:07:00 17° 67° (ENE) 3,508 5.5 -25.3°
